Regional Weather Roundup
Issued by NWS

Home | Current Version | Previous Version | Text Only | Print | Product List | Glossary On
Versions: 1 2 3 4 5 6 7 8 9 10 11 12 13 14 15 16 17 18 19 20 21 22 23 24 25 26 27 28 29 30 31 32 33 34 35 36 37 38 39 40 41 42 43 44 45 46 47 48 49 50
960
ASUS44 KJAN 061803
RWRMS

MISSISSIPPI HOURLY WEATHER ROUNDUP
NATIONAL WEATHER SERVICE JACKSON MS
1200 PM CST FRI MAR 06 2015

NOTE: "FAIR: INDICATES FEW OR NO CLOUDS BELOW 12,000 FEET WITH NO
SIGNIFICANT WEATHER AND/OR OBSTRUCTIONS TO VISIBILITY.

MSZ001>002-007>008-010>013-018>021-025>028-034>036-061900-
NORTHWEST MISSISSIPPI

CITY           SKY/WX    TMP DP  RH WIND       PRES   REMARKS
CLARKSDALE     FAIR      28  16  59 CALM      30.63F
CLEVELAND      FAIR      32  20  60 NE6       30.61F WCI  26
GREENWOOD      FAIR      38  13  35 N8        30.59F WCI  32
6HR MIN TEMP:  20; 6HR MAX TEMP:  38;

GREENVILLE     FAIR      34  20  56 MISG      30.61F
6HR MIN TEMP:  24; 6HR MAX TEMP:  34;

OLIVE BRANCH   SUNNY     32  14  47 CALM      30.59F
OXFORD         FAIR      32  10  40 E6        30.59F WCI  26
TUNICA         FAIR      30  18  59 CALM      30.62F
$$

MSZ003>006-009-014>017-022>024-029>033-037>039-061900-
NORTHEAST MISSISSIPPI

CITY           SKY/WX    TMP DP  RH WIND       PRES   REMARKS
COLUMBUS AFB     N/A     36  17  45 N10       30.57F WCI  29
CORINTH        FAIR      34  14  44 NW8       30.57F WCI  27
GOLDN TRIANGLE SUNNY     37  23  56 N5        30.56F WCI  34
STARKVILLE     FAIR      36  19  51 N5        30.57F WCI  32
TUPELO         FAIR      34  14  43 NE9       30.57F WCI  27
6HR MIN TEMP:  18; 6HR MAX TEMP:  34;

$$

MSZ040-058-061900-
CENTRAL MISSISSIPPI

CITY           SKY/WX    TMP DP  RH WIND       PRES   REMARKS
JACKSON INTL   FAIR      39  17  41 N9        30.56F WCI  33
6HR MIN TEMP:  23; 6HR MAX TEMP:  40;

JACKSON HAWKNS FAIR      41  15  35 N10       30.56F
6HR MIN TEMP:  22; 6HR MAX TEMP:  41;

MERIDIAN KEY   FAIR      43  18  36 N12       30.53F
6HR MIN TEMP:  21; 6HR MAX TEMP:  43;

MERIDIAN NAS   NOT AVBL
VICKSBURG      FAIR      41  19  41 NE8       30.59F
6HR MIN TEMP:  24; 6HR MAX TEMP:  41;

$$

MSZ059>079-061900-
SOUTH MISSISSIPPI

CITY           SKY/WX    TMP DP  RH WIND       PRES   REMARKS
BROOKHAVEN     FAIR      43  25  49 N12       30.54F
HATTIESBURG    FAIR      47  12  24 N13G18    30.51F
6HR MIN TEMP:  26; 6HR MAX TEMP:  47;

MCCOMB         FAIR      44  11  26 N10       30.51F
6HR MIN TEMP:  23; 6HR MAX TEMP:  45;

NATCHEZ        FAIR      41  18  38 N7        30.56F
PINE BELT      FAIR      46  16  29 N8G18     30.51F
6HR MIN TEMP:  23; 6HR MAX TEMP:  46;

$$

MSZ080>082-061900-
COASTAL MISSISSIPPI

CITY           SKY/WX    TMP DP  RH WIND       PRES   REMARKS
BAY ST LOUIS   SUNNY     46   5  18 N15G22    30.48F
BILOXI         FAIR      48  15  26 NE14G20   30.45F
6HR MIN TEMP:  29; 6HR MAX TEMP:  48;

PASCAGOULA     FAIR      49  14  24 N16       30.45F
6HR MIN TEMP:  28; 6HR MAX TEMP:  49;

GULFPORT       FAIR      48  14  25 N13G21    30.45F
6HR MIN TEMP:  28; 6HR MAX TEMP:  48;

$$



USA.gov is the U.S. government's official web portal to all federal, state and local government web resources and services.